Regional Weather Roundup
Issued by NWS Charleston, SC

Current Version | Previous Version | Graphics & Text | Print | Product List | Glossary On
Versions: 1 2 3 4 5 6 7 8 9 10 11 12 13 14 15 16 17 18 19 20 21 22 23 24 25 26 27 28 29 30 31 32 33 34 35 36 37 38 39 40 41 42 43 44 45 46 47 48 49 50
000
ASUS42 KCHS 300513
RWRCHS

REGIONAL WEATHER ROUNDUP
NATIONAL WEATHER SERVICE CHARLESTON SC
100 AM EDT FRI SEP 30 2016

NOTE: "FAIR" INDICATES FEW OR NO CLOUDS BELOW 12,000 FEET WITH NO
SIGNIFICANT WEATHER AND/OR OBSTRUCTIONS TO VISIBILITY.

NOT ALL STATIONS ARE QUALITY CONTROLLED. USE DATA WITH CAUTION...
ESPECIALLY DEWPOINT OBSERVATIONS.

SCZ027-030-031-034>040-042>050-300600-
...SOUTHEAST SOUTH CAROLINA...

CITY           SKY/WX    TMP DP  RH WIND       PRES   REMARKS
N CHARLESTON   TSTM      73  68  84 W16G28    29.97S
WATERFRONT PRK   N/A     81  77  88 S8        29.95F
MOUNT PLEASANT FAIR      79  75  89 CALM      29.97F
JOHNS ISLAND   CLOUDY    81  77  89 VRB6      29.96F THUNDER
PINOPOLIS        N/A     75  73  94 VRB3      29.90F
MONCKS CORNER  CLOUDY    73  72  94 SW5       29.97S THUNDER
SUMMERVILLE    NOT AVBL
BEAUFORT MCAS  CLOUDY    76  69  79 S6        29.96S THUNDER
BEAUFORT ARPT  TSTM      72  68  88 S17G24    29.98R
HILTON HEAD IS TSTM      72  70  94 SW3G21    29.98S
WALTERBORO     MOCLDY    70  70 100 E5        29.98S
ALLENDALE      FAIR      70  68  94 CALM      29.96S

...SOUTHERN MIDLANDS AND PEE DEE...

CITY           SKY/WX    TMP DP  RH WIND       PRES   REMARKS
GEORGETOWN     FAIR      73  73 100 S3        29.98F
KINGSTREE      CLOUDY    72  70  94 CALM      29.97R
ORANGEBURG     CLOUDY    72  69  90 W3        29.98R
BARNWELL       NOT AVBL
AIKEN          FAIR      64  50  59 CALM      30.01S
MANNING        FAIR      73  70  88 CALM      29.97S
COLUMBIA       CLOUDY    75  55  49 CALM      29.96F
SUMTER         CLOUDY    73  70  89 W6        29.94F
FLORENCE       PTCLDY    70  68  93 S5        29.98F
MYRTLE BEACH   MOCLDY    81  68  65 S9        30.00S
N MYRTLE BEACH PTCLDY    79  75  87 S9        29.97F

$$

GAZ063-065-086>088-099>101-113>116-118-119-134>141-150-300600-
...SOUTHEAST GEORGIA...

CITY           SKY/WX    TMP DP  RH WIND       PRES   REMARKS
SAVANNAH ARPT  CLEAR     71  68  90 S3        29.95F
HUNTER AAF     CLEAR     76  75  99 S5        29.93F
FORT STEWART   PTCLDY    73  72  95 S1        29.93F
STATESBORO     CLEAR     72  63  74 NW6       29.97S
SYLVANIA       NOT AVBL
CLAXTON        FAIR      71  69  95 W5        29.97S

...CSRA...CENTRAL AND FAR SOUTHEAST GEORGIA...

CITY           SKY/WX    TMP DP  RH WIND       PRES   REMARKS
THOMSON        PTCLDY    63  56  77 CALM      30.04F
AUGUSTA-BUSH   CLEAR     62  53  72 W5        29.97F
AUGUSTA-DANIEL CLEAR     71  46  40 CALM      29.99S
SWAINSBORO     FAIR      64  55  72 CALM      30.00F
VIDALIA        PTCLDY    72  59  64 NW7       29.99F
EASTMAN        MOCLDY    67  44  43 CALM      30.03F
HAZLEHURST     FAIR      73  58  58 E3        29.99S
ALMA           CLEAR     72  61  68 NW6       29.99S
WAYCROSS       CLEAR     74  72  92 W6        29.99R
JESUP          FAIR      73  73 100 W5        29.97F
BAXLEY         FAIR      73  63  68 N5        29.99R
BRUNSWICK      CLOUDY    79  73  83 SW8       29.98S
SAINT SIMONS   CLOUDY    78  73  84 SW10      29.97F

$$

SCZ027-028-034-036>038-045-046-048>050-GAZ119-141-300600-
...LAKE AND SUPPLEMENTAL COASTAL OBSERVATIONS...

STATION/POSITION TIME  TEMP    WIND        PRES    WAVE   SWELL
                       AIR SEA DIR/SP/G            HT/PER HT/PER/DIR
                 (UTC) (F)     (DEG/KT/KT) (MB)    (FT/S) (FT/S/D)
WINYAH BAY       NOT AVBL
LAKE MURRAY      0420   73     310/  4/  9 1014.2
ACE BASIN NERRS  0345   80     180/  2     1015.0
FORT PULASKI     0442   79 82  190/  3/  5 1014.7F
SAPELO ISLAND    0400   79     200/  9     1015.0

$$

ANZ835-935-AMZ111-154-330-350-352-354-370-450-454-472-300600-
...C-MAN AND BUOY OBSERVATIONS...

STATION/POSITION TIME  TEMP    WIND        PRES    WAVE   SWELL
                       AIR SEA DIR/SP/G            HT/PER HT/PER/DIR
                 (UTC) (F)     (DEG/KT/KT) (MB)    (FT/S) (FT/S/D)
BUOY 41004       0450   82 82  190/ 14/ 17 1014.6F   3/ 5   2/110/ 9
BUOY 41008       0450   82 82  200/ 16/ 19 1014.4F   3/ 5   2/ 50/11
FOLLY BEACH CMAN 0400   81     180/ 16/ 19 1015.1F
CAPERS NEARSHORE 0408   81 81  210/ 14/ 19 1015.2F
FRIPP NEARSHORE  0408   78 81  270/ 14/ 23 1014.7F


STATION/POSITION TIME  TEMP    WIND        PRES    WAVE   SWELL
                       AIR SEA DIR/SP/G            HT/PER HT/PER/DIR
                 (UTC) (F)     (DEG/KT/KT) (MB)    (FT/S) (FT/S/D)
5E ST. MARYS GA  0401      82                N/A     3/12   2/100/12
FRYING PAN BUOY  0450   81 82  170/ 12/ 16 1015.5F   3/ 5   2/120/ 7
BUOY 41025       0450   80 77  210/ 12/ 14 1016.7F   4/10   3/ 60/10
CAPE LOOKOUT NC  0400   79     150/ 12/ 14 1016.5F
BUOY 41002       0450   81 83  190/ 12/ 14 1018.0F   3/10   3/ 50/10
BUOY 41010       NOT AVBL
ST AUGUSTINE FL  0500   75 83  210/  6/  8 1016.7F


$$



USA.gov is the U.S. government's official web portal to all federal, state and local government web resources and services.